Location: Alladorf
(49.9620°N, 11.3790°E)
Time: 19:42:04
(UTC+00:00)

Cosmos 2263 Rocket - Pass Details

Date: 29 November 2020
Orbit: 823 x 848 km, 71.0° (Epoch: 25 January)

Event Time Altitude Azimuth Distance (km) Brightness Sun altitude
Exits shadow 04:42:41 36° 285° (WNW) 1,317 2.7 -19.5°
Maximum altitude 04:43:44 39° 310° (NW) 1,248 2.6 -19.3°
Drops below altitude 10° 04:49:04 10° 19° (NNE) 2,485 4.7 -18.5°
Sets 04:51:42 0° 27° (NNE) 3,425 5.6 -18.1°
